Etusivu
METAR-TAF:

METAR-TAF

Lentoasemat :

El Bayadh, Algeria

Leveyspiiri: 33-43-15N, Pituuspiiri: 1-05-29E, korkeus merenpinnasta: 1366 m

Tämänhetkinen sää

Tämä raportti tehtiin 1 tunti ja 8 minuuttia sitten, kello 11.00 UTC
Tuuli 16 kn pohjoisesta
Lämpötila 15°C
Kosteus 41%
Ilmanpaine 1013 hPa
Näkyvyys 10 km tai enemmän
Hajanaisia pilviä 3000 ft:n korkeudessa

METAR: DAOY 011100Z 35016KT 9999 SCT030 15/02 Q1013

Aika: 13:08 (12:08 UTC)


TAF: puuttuu

Säähavainnot ja -ennusteet yli 4000 lentoasemalta (METAR- ja TAF-raportit).

Käytössä olevat sääasemat on merkitty karttaan keltaisilla ja punaisilla pisteillä.

Aseta hiiri pisteen päälle nähdäksesi sääaseman nimen.

Klikkaa sitten nähdäksesi säähavainnot ja -ennusteet.

Kartan vaihtaminen: klikkaa mustalla rastilla varustettuja vihreitä pisteitä, niin voit zoomata sisään; viivalla varustettua vihreää pistettä, niin voit zoomata ulos tai vihreitä nuolia, niin pääset viereisille kartoille.


METAR-TAF: